Miscellaneous Local Product
Issued by NWS Hastings, NE

Home | Current Version | Previous Version | Graphics & Text | Print | Product List | Glossary On
Versions: 1 2 3 4 5 6 7 8 9 10 11 12 13 14 15 16 17 18 19 20 21 22 23 24 25 26 27 28 29 30 31 32 33 34 35 36 37 38 39 40 41 42 43 44 45 46 47 48 49 50
555
AXUS43 KGID 270302
MISGRI

GID CWA HOURLY WEATHER ROUNDUP
NATIONAL WEATHER SERVICE HASTINGS NE
1000 PM CDT SUN MAR 26 2017

NOTE: "FAIR" INDICATES FEW OR NO CLOUDS BELOW 12,000 FEET WITH NO
SIGNIFICANT WEATHER AND/OR OBSTRUCTIONS TO VISIBILITY.

...SOUTH CENTRAL NEBRASKA...

CITY           SKY/WX    TMP DP  RH WIND       PRES   REMARKS
GRAND ISLAND   CLOUDY    46  45  96 E5        29.94F
HASTINGS       LGT RAIN  46  44  93 E5        29.95R FOG
KEARNEY        CLOUDY    46  41  81 CALM      29.94S
ORD            CLOUDY    44  40  85 E5        29.95R
YORK           CLOUDY    45  45 100 CALM      29.95S
AURORA         CLOUDY    46  44  95 CALM      29.94F
LEXINGTON      CLOUDY    46  42  84 S3        29.93S
HOLDREGE       CLOUDY    45  42  91 CALM      29.93R
HEBRON         LGT RAIN  46  44  95 NE6       29.93S

...NEBRASKA PANHANDLE...

CITY           SKY/WX    TMP DP  RH WIND       PRES   REMARKS
CHADRON        CLEAR     39  36  89 NE5       29.95R
ALLIANCE       CLOUDY    43  38  82 NW6       29.95R
SCOTTSBLUFF    CLEAR     39  32  76 CALM      29.95R
SIDNEY         CLEAR     41  35  79 NW10      29.96R

...WESTERN AND NORTH CENTRAL NEBRASKA...

CITY           SKY/WX    TMP DP  RH WIND       PRES   REMARKS
VALENTINE      CLOUDY    43  35  73 NE3       29.96R
AINSWORTH      CLOUDY    42  41  97 SE7       29.95S
ONEILL         CLOUDY    45  41  88 CALM      29.97S
BROKEN BOW     MOCLDY    47  43  86 SE6       29.94R
IMPERIAL       MOCLDY    45  41  86 SW7       29.92R
NORTH PLATTE   CLOUDY    45  39  79 SE6       29.92R
MCCOOK         CLOUDY    46  42  86 SW6       29.93R

...EASTERN NEBRASKA...

CITY           SKY/WX    TMP DP  RH WIND       PRES   REMARKS
NORFOLK        CLOUDY    44  40  85 NE5       29.96S
SO SIOUX CITY  CLOUDY    47  41  80 N5        29.98R
TEKAMAH        CLOUDY    46  42  86 NW5       29.97S
COLUMBUS       CLOUDY    45  43  93 E5        29.97F
ALBION         CLOUDY    46  42  88 E3        29.96S
OMAHA EPPLEY   CLOUDY    48  41  76 CALM      29.96F
OFFUTT AFB     CLOUDY    47  42  83 CALM      29.95F
MILLARD        CLOUDY    50  44  79 CALM      29.96S
LINCOLN        CLOUDY    47  43  86 NE5       29.96F
NEBRASKA CITY  CLOUDY    46  43  90 CALM      29.95F
BEATRICE       CLOUDY    46  44  90 NE7       29.93F
FALLS CITY     CLOUDY    47  44  90 NE6       29.93F

...NORTHERN KANSAS...

CITY           SKY/WX    TMP DP  RH WIND       PRES   REMARKS
GOODLAND       CLEAR     37  37 100 S5        29.94R WCI  33
HILL CITY      CLOUDY    46  45  96 N5        29.95R
NORTON         LGT RAIN  45  41  87 S3        29.93S
PHILLIPSBURG   CLOUDY    46  46 100 CALM      29.95S
RUSSELL        CLOUDY    46  45  96 N7        29.91R
CONCORDIA      CLOUDY    47  46  97 NE3       29.92R
SALINA         CLOUDY    50  47  89 NE8       29.90R
TOPEKA         CLOUDY    48  48 100 NE9       29.87F



USA.gov is the U.S. government's official web portal to all federal, state and local government web resources and services.